Shreveport Downtown, LA

2:30 PM CST on January 19, 2018 (GMT -0600)
Shreveport Downtown

Weather History for KDTN - April, 2013

Change the Weather History Date:

Wednesday, April 3, 2013

  Actual Average (KBAD) Record (KBAD)
Temperature  
Mean Temperature 44 °F -  
Max Temperature 48 °F 71 °F 86 °F (2011)
Min Temperature 42 °F 51 °F 39 °F (2016)
Degree Days  
Heating Degree Days 21    
Moisture  
Dew Point 41 °F    
Average Humidity 89    
Maximum Humidity 93    
Minimum Humidity 79    
Precipitation  
Precipitation 0.18 in - - ()
Sea Level Pressure  
Sea Level Pressure 30.09 in    
Wind  
Wind Speed 8 mph (NE)    
Max Wind Speed 14 mph    
Max Gust Speed 21 mph    
Visibility 9 miles    
Events Rain    
Averages and records for this station are not official NWS values.
T = Trace of Precipitation, MM = Missing Value Source: NWS Daily Summary

Daily Weather History Graph

Daily Weather History Graph

Search for Another Location

Airport or City:

Trip Planner

Search our weather history database for the weather conditions in past years. The results will help you decide how hot, cold, wet, or windy it might be!

Date:

Astronomy

Apr. 03, 2013 Rise Set
Actual Time 7:00 AM CDT 7:36 PM CDT
Civil Twilight 6:35 AM CDT 8:01 PM CDT
Nautical Twilight 6:06 AM CDT 8:30 PM CDT
Astronomical Twilight 5:36 AM CDT 9:00 PM CDT
Moon 2:20 AM CDT (4/3) 1:09 PM CDT (4/3)
Length of Visible Light 13h 26m
Length of Day
12h 36m
Last Quarter, 44% of the Moon is Illuminated
Apr 3
Last Quarter
Apr 10
New
Apr 18
First Quarter
Apr 25
Full
May 2
Last Quarter

Hourly Weather History & Observations

Time (CDT) Temp. Windchill Dew Point Humidity Pressure Visibility Wind Dir Wind Speed Gust Speed Precip Events Conditions
12:53 AM 45.0 °F 40.6 °F 41.0 °F 86% 30.08 in 10.0 mi NE 8.1 mph 18.4 mph 0.01 in Rain Light Rain
1:53 AM 46.0 °F 41.9 °F 39.9 °F 79% 30.02 in 10.0 mi ENE 8.1 mph - 0.00 in   Overcast
2:53 AM 46.9 °F - 41.0 °F 80% 29.99 in 10.0 mi East 4.6 mph - 0.00 in   Overcast
3:53 AM 46.9 °F - 43.0 °F 86% 30.04 in 10.0 mi NE 4.6 mph - 0.02 in Rain Light Rain
4:53 AM 46.0 °F 41.4 °F 44.1 °F 93% 30.02 in 10.0 mi NNE 9.2 mph - 0.05 in Rain Light Rain
5:53 AM 46.0 °F 41.4 °F 44.1 °F 93% 30.02 in 10.0 mi NE 9.2 mph 17.3 mph 0.00 in   Overcast
6:53 AM 46.0 °F 40.6 °F 42.1 °F 86% 30.03 in 10.0 mi NE 11.5 mph - N/A   Overcast
7:53 AM 45.0 °F 40.6 °F 42.1 °F 90% 30.06 in 10.0 mi ENE 8.1 mph - N/A   Overcast
8:53 AM 45.0 °F 40.1 °F 42.1 °F 90% 30.08 in 10.0 mi NNE 9.2 mph - N/A   Overcast
9:29 AM 44.6 °F 40.7 °F 42.8 °F 93% 30.10 in 4.0 mi NNE 6.9 mph - 0.03 in Rain Light Rain
9:53 AM 45.0 °F 40.6 °F 42.1 °F 90% 30.11 in 7.0 mi North 8.1 mph - 0.04 in Rain Light Rain
10:24 AM 44.6 °F 39.7 °F 42.8 °F 93% 30.12 in 5.0 mi NNE 9.2 mph - 0.02 in Rain Light Rain
10:46 AM 44.6 °F 38.1 °F 42.8 °F 93% 30.11 in 8.0 mi NE 13.8 mph 20.7 mph 0.03 in Rain Light Rain
10:53 AM 44.1 °F 39.0 °F 42.1 °F 93% 30.11 in 7.0 mi NE 9.2 mph 20.7 mph 0.03 in Rain Light Rain
11:09 AM 44.6 °F 38.1 °F 42.8 °F 93% 30.09 in 5.0 mi NE 13.8 mph 20.7 mph 0.02 in Rain Light Rain
11:53 AM 45.0 °F 40.1 °F 42.1 °F 90% 30.09 in 10.0 mi NE 9.2 mph 19.6 mph 0.03 in   Overcast
12:53 PM 46.0 °F 41.9 °F 43.0 °F 89% 30.11 in 10.0 mi ENE 8.1 mph - N/A   Overcast
1:53 PM 46.0 °F 41.4 °F 42.1 °F 86% 30.08 in 10.0 mi NE 9.2 mph 18.4 mph N/A   Overcast
2:53 PM 46.0 °F 41.0 °F 42.1 °F 86% 30.08 in 10.0 mi NE 10.4 mph 19.6 mph N/A   Overcast
3:53 PM 45.0 °F 39.7 °F 41.0 °F 86% 30.08 in 10.0 mi NE 10.4 mph - N/A   Overcast
4:53 PM 45.0 °F 39.7 °F 41.0 °F 86% 30.07 in 10.0 mi NE 10.4 mph - N/A   Overcast
5:53 PM 44.1 °F 39.0 °F 41.0 °F 89% 30.07 in 10.0 mi North 9.2 mph - N/A   Overcast
6:53 PM 44.1 °F 38.6 °F 39.9 °F 85% 30.07 in 10.0 mi NE 10.4 mph 17.3 mph N/A   Overcast
7:53 PM 43.0 °F 37.2 °F 39.9 °F 89% 30.08 in 10.0 mi NE 10.4 mph - N/A   Overcast
8:53 PM 43.0 °F 37.2 °F 39.9 °F 89% 30.12 in 10.0 mi NNE 10.4 mph - N/A   Overcast
9:53 PM 43.0 °F 38.8 °F 39.9 °F 89% 30.14 in 6.0 mi NE 6.9 mph - N/A   Overcast
10:53 PM 42.1 °F 38.4 °F 39.9 °F 92% 30.14 in 5.0 mi NNE 5.8 mph - 0.00 in Rain Light Rain
11:19 PM 42.8 °F 38.6 °F 39.2 °F 87% 30.14 in 7.0 mi NE 6.9 mph - 0.00 in Rain Light Rain
11:41 PM 42.8 °F 39.3 °F 39.2 °F 87% 30.13 in 10.0 mi NNE 5.8 mph - 0.00 in Rain Light Rain
11:48 PM 42.8 °F 39.3 °F 39.2 °F 87% 30.13 in 10.0 mi NNE 5.8 mph - 0.00 in Rain Light Rain
11:53 PM 42.1 °F 39.2 °F 39.9 °F 92% 30.13 in 10.0 mi NNE 4.6 mph - 0.00 in   Overcast